FW6147 Weather Reports


time (UTC)temp
C
wind
direction
speed
KPH
gust
KPH
rain 1hr
cm
rain 24hr
cm
rain mn
cm
humidity
%
barometer
mb
20260902060553 22 307 1.6 8.0 0.00 0.00 0.00 64 1022.4
20260902060103 22 307 3.2 8.0 0.00 0.00 0.00 64 1022.4
20260902055552 22 307 4.8 8.0 0.00 0.00 0.00 64 1022.4
20260902055052 22 307 4.8 8.0 0.00 0.00 0.00 64 1022.3
20260902054601 22 314 3.2 6.4 0.00 0.00 0.00 64 1022.3
20260902054055 23 314 3.2 6.4 0.00 0.00 0.00 64 1022.4
20260902053551 23 316 3.2 6.4 0.00 0.00 0.00 64 1022.4
20260902053105 23 335 3.2 6.4 0.00 0.00 0.00 63 1022.4
20260902052551 23 338 1.6 6.4 0.00 0.00 0.00 64 1022.4
20260902052056 23 339 0.0 4.8 0.00 0.00 0.00 64 1022.4
20260902051604 23 0 0.0 3.2 0.00 0.00 0.00 64 1022.5
20260902051055 23 0 0.0 3.2 0.00 0.00 0.00 64 1022.5
20260902050556 23 339 1.6 3.2 0.00 0.00 0.00 63 1022.6
20260902050104 23 0 0.0 3.2 0.00 0.00 0.00 64 1022.6
20260902045554 23 0 0.0 3.2 0.00 0.00 0.00 64 1022.6
20260902045051 23 0 0.0 3.2 0.00 0.00 0.00 63 1022.6
20260902044603 23 0 0.0 3.2 0.00 0.00 0.00 63 1022.6
20260902044053 23 0 1.6 3.2 0.00 0.00 0.00 64 1022.5
20260902043554 22 0 0.0 0.0 0.00 0.00 0.00 64 1022.5
20260902043105 22 0 0.0 0.0 0.00 0.00 0.00 65 1022.5
20260902042551 22 0 0.0 1.6 0.00 0.00 0.00 65 1022.4
20260902042056 22 0 0.0 6.4 0.00 0.00 0.00 66 1022.4
20260902041622 22 0 0.0 6.4 0.00 0.00 0.00 65 1022.3
20260902041054 22 0 0.0 6.4 0.00 0.00 0.00 65 1022.3
20260902040556 22 0 1.6 6.4 0.00 0.00 0.00 65 1022.3
20260902040107 22 0 3.2 6.4 0.00 0.00 0.00 64 1022.2
20260902035553 22 343 3.2 6.4 0.00 0.00 0.00 65 1022.1
20260902035054 22 0 0.0 3.2 0.00 0.00 0.00 67 1022.0
20260902034607 22 359 0.0 1.6 0.00 0.00 0.00 68 1021.9
20260902034054 22 0 0.0 1.6 0.00 0.00 0.00 68 1021.8
20260902033551 22 0 0.0 1.6 0.00 0.00 0.00 68 1021.8
20260902033059 22 0 0.0 3.2 0.00 0.00 0.00 68 1021.7
20260902032556 22 0 0.0 3.2 0.00 0.00 0.00 68 1021.6
20260902032055 22 0 0.0 3.2 0.00 0.00 0.00 66 1021.5
20260902031616 22 0 0.0 3.2 0.00 0.00 0.00 67 1021.4
20260902031055 23 0 0.0 4.8 0.00 0.00 0.00 65 1021.3
20260902030553 23 0 0.0 4.8 0.00 0.00 0.00 64 1021.1
20260902025554 23 0 0.0 0.0 0.00 0.00 0.00 63 1021.0
20260902025054 23 0 0.0 0.0 0.00 0.00 0.00 64 1020.9
20260902024625 23 0 0.0 0.0 0.00 0.00 0.00 61 1020.7
20260902024054 23 0 0.0 0.0 0.00 0.00 0.00 61 1020.6
20260902023555 24 0 0.0 0.0 0.00 0.00 0.00 60 1020.5
20260902023107 24 0 0.0 0.0 0.00 0.00 0.00 59 1020.5
20260902022555 23 0 0.0 6.4 0.00 0.00 0.00 58 1020.6
20260902022054 24 0 0.0 6.4 0.00 0.00 0.00 60 1020.5
20260902021607 24 359 0.0 6.4 0.00 0.00 0.00 59 1020.4
20260902021054 25 0 0.0 0.0 0.00 0.00 0.00 59 1020.4
20260902020553 25 0 0.0 3.2 0.00 0.00 0.00 56 1020.4
20260902020108 25 0 0.0 3.2 0.00 0.00 0.00 56 1020.3
20260902015553 25 359 1.6 3.2 0.00 0.00 0.00 56 1020.2
20260902015053 26 359 0.0 4.8 0.00 0.00 0.00 53 1020.1
20260902014600 26 359 1.6 4.8 0.00 0.00 0.00 51 1020.0
20260902014051 26 359 1.6 3.2 0.00 0.00 0.00 49 1020.0
20260902013557 26 359 0.0 3.2 0.00 0.00 0.00 52 1020.0
20260902013059 26 359 0.0 3.2 0.00 0.00 0.00 50 1019.9
20260902012603 27 0 0.0 3.2 0.00 0.00 0.00 50 1019.9
20260902012056 27 0 0.0 3.2 0.00 0.00 0.00 49 1020.0
20260902011608 27 359 0.0 3.2 0.00 0.00 0.00 48 1019.9
20260902011054 27 0 0.0 3.2 0.00 0.00 0.00 46 1019.9
20260902010559 28 0 0.0 1.6 0.00 0.00 0.00 44 1020.0
20260902010100 28 0 0.0 1.6 0.00 0.00 0.00 43 1019.9
20260902005555 28 0 0.0 4.8 0.00 0.00 0.00 44 1019.9
20260902005056 28 0 0.0 4.8 0.00 0.00 0.00 44 1019.9
20260902004603 28 359 1.6 4.8 0.00 0.00 0.00 43 1020.0
20260902004054 28 359 1.6 4.8 0.00 0.00 0.00 43 1019.9
20260902003556 28 0 1.6 8.0 0.00 0.00 0.00 44 1019.9
20260902003104 28 359 3.2 9.7 0.00 0.00 0.00 44 1019.9
20260902002557 28 359 4.8 11.3 0.00 0.00 0.00 42 1019.9
20260902002056 29 359 6.4 11.3 0.00 0.00 0.00 40 1019.9
20260902001612 30 354 6.4 11.3 0.00 0.00 0.00 38 1020.0
20260902001055 30 321 3.2 11.3 0.00 0.00 0.00 38 1020.0
20260902000600 30 359 6.4 12.9 0.00 0.00 0.00 40 1020.0
20260902000106 30 360 4.8 12.9 0.00 0.00 0.00 41 1020.0
20260901235556 30 345 6.4 12.9 0.00 0.00 0.00 40 1020.0
20260901235056 30 341 3.2 8.0 0.00 0.00 0.00 40 1020.1
20260901234607 30 18 3.2 11.3 0.00 0.00 0.00 42 1020.1
20260901234056 29 21 6.4 11.3 0.00 0.00 0.00 40 1020.1
20260901233557 29 1 4.8 9.7 0.00 0.00 0.00 44 1020.1
20260901233110 29 352 4.8 9.7 0.00 0.00 0.00 41 1020.2
20260901232556 30 359 3.2 9.7 0.00 0.00 0.00 39 1020.2
20260901232056 30 359 6.4 9.7 0.00 0.00 0.00 38 1020.2
20260901231611 30 32 4.8 8.0 0.00 0.00 0.00 38 1020.2
20260901231102 30 32 3.2 9.7 0.00 0.00 0.00 40 1020.2
20260901230558 31 32 4.8 9.7 0.00 0.00 0.00 35 1020.1
20260901230119 31 23 0.0 8.0 0.00 0.00 0.00 36 1020.2
20260901225554 31 81 3.2 6.4 0.00 0.08 0.00 35 1020.2
20260901225056 31 57 1.6 6.4 0.00 0.08 0.00 34 1020.2
20260901224601 30 123 3.2 11.3 0.00 0.08 0.00 34 1020.4
20260901224100 30 0 4.8 14.5 0.00 0.08 0.00 34 1020.5
20260901223556 30 125 6.4 14.5 0.00 0.08 0.00 32 1020.5
20260901223115 31 109 8.0 14.5 0.00 0.08 0.00 30 1020.5
20260901222556 30 172 3.2 16.1 0.00 0.08 0.00 30 1020.6
20260901222054 30 172 8.0 16.1 0.00 0.08 0.00 31 1020.7
20260901221607 30 201 6.4 16.1 0.00 0.08 0.00 32 1020.8
20260901221054 28 190 1.6 4.8 0.00 0.08 0.00 37 1020.9
20260901220554 28 193 1.6 8.0 0.00 0.08 0.00 36 1021.0
20260901220107 28 193 1.6 8.0 0.00 0.08 0.00 40 1021.1
20260901215553 28 193 3.2 8.0 0.00 0.08 0.00 40 1021.1
20260901215053 28 188 1.6 11.3 0.00 0.08 0.00 45 1021.2
20260901214606 28 0 4.8 11.3 0.00 0.08 0.00 45 1021.2
20260901214054 28 181 1.6 6.4 0.00 0.08 0.00 44 1021.3
20260901213553 28 5 1.6 4.8 0.00 0.08 0.00 42 1021.3
20260901213138 28 5 1.6 4.8 0.00 0.08 0.00 43 1021.4
20260901212555 28 4 1.6 6.4 0.00 0.08 0.00 42 1021.5
20260901212058 28 0 0.0 6.4 0.00 0.08 0.00 41 1021.5
20260901211603 28 4 3.2 6.4 0.00 0.08 0.00 39 1021.5
20260901211057 29 4 3.2 6.4 0.00 0.08 0.00 39 1021.5
20260901210553 29 4 3.2 6.4 0.00 0.08 0.00 38 1021.5
20260901205552 29 0 0.0 6.4 0.00 0.08 0.00 39 1021.7
20260901205052 29 0 1.6 12.9 0.00 0.08 0.00 39 1021.8
20260901204559 30 4 4.8 12.9 0.00 0.08 0.00 38 1022.0
20260901204054 30 8 6.4 12.9 0.00 0.08 0.00 40 1022.0
20260901203554 29 124 3.2 9.7 0.00 0.08 0.00 39 1022.0
20260901203121 29 30 1.6 8.0 0.00 0.08 0.00 40 1022.2
20260901202554 29 351 1.6 8.0 0.00 0.08 0.00 38 1022.2
20260901202054 29 355 3.2 11.3 0.00 0.08 0.00 41 1022.3
20260901201602 28 23 4.8 11.3 0.00 0.08 0.00 41 1022.3
20260901201053 28 25 6.4 11.3 0.00 0.08 0.00 41 1022.4
20260901200554 28 12 3.2 9.7 0.00 0.08 0.00 43 1022.5
20260901200059 28 75 1.6 9.7 0.00 0.08 0.00 43 1022.6
20260901195554 28 59 4.8 11.3 0.00 0.08 0.00 45 1022.6
20260901195054 28 36 6.4 11.3 0.00 0.08 0.00 45 1022.6
20260901194607 28 46 4.8 9.7 0.00 0.08 0.00 45 1022.6
20260901194054 28 32 4.8 9.7 0.00 0.08 0.00 45 1022.7
20260901193551 28 37 4.8 9.7 0.00 0.08 0.00 46 1022.8
20260901193106 28 35 3.2 14.5 0.00 0.08 0.00 47 1022.8
20260901192554 28 61 6.4 14.5 0.00 0.08 0.00 47 1022.9
20260901192055 28 82 4.8 11.3 0.00 0.08 0.00 46 1022.9
20260901191622 28 32 6.4 11.3 0.00 0.08 0.00 45 1022.9
20260901191054 28 38 4.8 9.7 0.00 0.08 0.00 48 1022.9
20260901190551 27 103 3.2 8.0 0.00 0.08 0.00 50 1023.0
20260901185555 27 341 3.2 11.3 0.00 0.08 0.00 47 1023.1
20260901185051 27 333 4.8 12.9 0.00 0.08 0.00 47 1023.1
20260901184606 27 360 6.4 12.9 0.00 0.08 0.00 48 1023.1
20260901184055 27 23 1.6 8.0 0.00 0.08 0.00 49 1023.2
20260901183554 27 131 1.6 12.9 0.00 0.08 0.00 48 1023.2
20260901183105 27 94 6.4 12.9 0.00 0.08 0.00 49 1023.2
20260901182555 27 97 3.2 8.0 0.00 0.08 0.00 51 1023.4
20260901182055 27 124 3.2 8.0 0.00 0.08 0.00 51 1023.5
20260901181603 26 97 3.2 9.7 0.00 0.08 0.00 52 1023.6
20260901181052 26 57 4.8 9.7 0.00 0.08 0.00 52 1023.7
20260901180554 26 0 3.2 9.7 0.00 0.08 0.00 52 1023.7
20260901180105 26 58 1.6 9.7 0.00 0.08 0.00 51 1023.7
20260901175553 26 58 3.2 9.7 0.00 0.08 0.00 52 1023.7
20260901175053 26 0 4.8 8.0 0.00 0.08 0.00 52 1023.8
20260901174607 26 82 3.2 8.0 0.00 0.08 0.00 54 1023.8
20260901174051 26 74 4.8 9.7 0.00 0.08 0.00 54 1023.9
20260901173552 26 86 4.8 9.7 0.00 0.08 0.00 59 1024.0
20260901173058 25 24 4.8 9.7 0.00 0.08 0.00 61 1023.9
20260901172552 25 28 4.8 8.0 0.00 0.08 0.00 61 1024.0
20260901172054 25 42 1.6 8.0 0.00 0.08 0.00 64 1024.0
20260901171606 24 56 0.0 8.0 0.00 0.08 0.00 65 1024.1
20260901171052 23 68 1.6 8.0 0.00 0.08 0.00 66 1024.0
20260901170555 23 56 3.2 8.0 0.00 0.08 0.00 65 1023.9
20260901170105 23 49 4.8 8.0 0.00 0.08 0.00 64 1023.9
20260901165550 23 32 3.2 8.0 0.00 0.08 0.00 68 1024.0
20260901165055 23 41 4.8 8.0 0.00 0.08 0.00 69 1023.9
20260901164605 23 19 3.2 8.0 0.00 0.08 0.00 73 1024.0
20260901164054 22 23 0.0 6.4 0.00 0.08 0.00 74 1023.9
20260901163554 22 23 3.2 6.4 0.00 0.08 0.00 73 1023.8
20260901163105 22 0 0.0 6.4 0.00 0.08 0.00 75 1023.8
20260901162550 22 16 1.6 8.0 0.00 0.08 0.00 77 1023.8
20260901162052 22 19 3.2 9.7 0.00 0.08 0.00 78 1023.7
20260901161603 22 30 1.6 9.7 0.00 0.08 0.00 80 1023.6
20260901161050 21 46 1.6 9.7 0.00 0.08 0.00 81 1023.7
20260901160551 21 0 1.6 6.4 0.00 0.08 0.00 81 1023.8
20260901160118 21 53 3.2 6.4 0.00 0.08 0.00 82 1023.9
20260901155556 21 54 1.6 6.4 0.00 0.15 0.00 82 1023.8
20260901155054 21 48 0.0 6.4 0.00 0.15 0.00 83 1023.8
20260901154603 21 48 3.2 6.4 0.00 0.15 0.00 83 1023.8
20260901154054 21 51 1.6 6.4 0.00 0.15 0.00 84 1023.6
20260901153557 21 51 1.6 6.4 0.00 0.15 0.00 85 1023.5
20260901153120 21 52 1.6 8.0 0.00 0.15 0.00 86 1023.7
20260901152554 20 47 3.2 8.0 0.00 0.15 0.00 86 1023.5
20260901152055 20 47 3.2 8.0 0.00 0.15 0.00 89 1023.5
20260901151607 20 46 1.6 6.4 0.00 0.15 0.00 89 1023.5
20260901151054 20 46 1.6 8.0 0.00 0.15 0.00 90 1023.4
20260901150555 20 46 3.2 8.0 0.00 0.15 0.00 91 1023.4
20260901150126 19 44 1.6 4.8 0.00 0.15 0.00 92 1023.4
20260901145555 19 0 1.6 4.8 0.00 0.28 0.00 92 1023.4
20260901145056 18 44 0.0 4.8 0.00 0.28 0.00 92 1023.2
20260901144626 18 44 1.6 4.8 0.00 0.28 0.00 92 1023.2
20260901144055 18 44 1.6 4.8 0.00 0.28 0.00 92 1023.1
20260901143554 18 44 1.6 4.8 0.00 0.28 0.00 93 1023.0
20260901143110 18 44 1.6 4.8 0.00 0.28 0.00 93 1023.0
20260901142557 18 44 1.6 4.8 0.00 0.28 0.00 93 1023.1
20260901142054 18 44 1.6 4.8 0.00 0.28 0.00 93 1023.1
20260901141603 18 0 0.0 4.8 0.00 0.28 0.00 93 1023.0
20260901141054 18 0 0.0 4.8 0.00 0.28 0.00 92 1023.1
20260901140557 18 0 0.0 3.2 0.00 0.28 0.00 93 1023.1
20260901140111 18 44 0.0 3.2 0.00 0.28 0.00 93 1023.0
20260901135555 18 44 0.0 3.2 0.00 0.30 0.00 93 1022.9
20260901135056 18 0 0.0 3.2 0.00 0.30 0.00 93 1022.9
20260901134623 17 0 0.0 1.6 0.00 0.30 0.00 93 1022.9
20260901134053 17 0 0.0 0.0 0.00 0.30 0.00 93 1022.9
20260901133554 17 0 0.0 0.0 0.00 0.30 0.00 93 1022.8
20260901133110 17 0 0.0 1.6 0.00 0.30 0.00 92 1022.7
20260901132557 17 0 0.0 1.6 0.00 0.30 0.00 93 1022.8
20260901132055 17 0 0.0 1.6 0.00 0.30 0.00 93 1022.7
20260901131629 17 44 0.0 1.6 0.00 0.30 0.00 93 1022.5
20260901131053 17 0 0.0 1.6 0.00 0.30 0.00 92 1022.5
20260901130556 17 0 0.0 1.6 0.00 0.30 0.00 92 1022.5
20260901130128 17 44 0.0 1.6 0.00 0.30 0.00 93 1022.5
20260901125554 17 0 0.0 0.0 0.00 0.30 0.00 93 1022.5
20260901125056 17 0 0.0 3.2 0.00 0.30 0.00 92 1022.3
20260901124600 17 0 0.0 3.2 0.00 0.30 0.00 93 1022.3
20260901124057 17 0 0.0 0.0 0.00 0.30 0.00 92 1022.3
20260901123554 17 0 0.0 4.8 0.00 0.30 0.00 92 1022.1
20260901123101 17 0 0.0 4.8 0.00 0.30 0.00 93 1022.1
20260901122600 17 44 3.2 4.8 0.00 0.30 0.00 93 1022.1
20260901122053 16 44 3.2 4.8 0.00 0.30 0.00 93 1022.1
20260901121605 16 44 3.2 4.8 0.00 0.30 0.00 93 1022.0
20260901121054 16 44 0.0 6.4 0.00 0.30 0.00 93 1022.1
20260901120554 16 44 3.2 6.4 0.00 0.30 0.00 93 1021.9
20260901120111 16 44 0.0 1.6 0.00 0.30 0.00 93 1021.8
20260901115553 16 0 0.0 3.2 0.00 0.30 0.00 92 1021.9
20260901115056 16 0 0.0 3.2 0.00 0.30 0.00 92 1021.8
20260901114603 16 44 0.0 3.2 0.00 0.30 0.00 92 1021.8
20260901114053 16 0 0.0 1.6 0.00 0.30 0.00 92 1021.8
20260901113554 16 0 0.0 1.6 0.00 0.30 0.00 92 1021.8
20260901113106 16 0 0.0 3.2 0.00 0.30 0.00 92 1021.7
20260901112554 16 0 0.0 6.4 0.00 0.30 0.00 92 1021.7
20260901112056 16 44 1.6 6.4 0.00 0.30 0.00 92 1021.8
20260901111603 16 44 3.2 6.4 0.00 0.30 0.00 92 1021.9
20260901111054 16 44 0.0 3.2 0.00 0.30 0.00 92 1021.9
20260901110553 16 0 0.0 4.8 0.00 0.30 0.00 92 1021.8
20260901110100 16 44 1.6 4.8 0.00 0.30 0.00 92 1021.9
20260901105554 16 44 1.6 4.8 0.00 0.33 0.00 92 1021.9
20260901105058 16 0 0.0 3.2 0.00 0.33 0.00 92 1021.9
20260901104609 16 44 1.6 3.2 0.00 0.33 0.00 92 1021.9
20260901104055 17 0 0.0 3.2 0.00 0.33 0.00 92 1021.9
20260901103553 17 44 0.0 3.2 0.00 0.33 0.00 92 1022.0
20260901103102 17 0 0.0 0.0 0.00 0.33 0.00 92 1022.0
20260901102554 17 0 0.0 0.0 0.00 0.33 0.00 92 1022.0
20260901102054 17 0 0.0 1.6 0.00 0.33 0.00 92 1021.9
20260901101611 17 0 0.0 3.2 0.00 0.33 0.00 92 1022.0
20260901101054 17 0 0.0 3.2 0.00 0.33 0.00 92 1022.0
20260901100558 17 0 0.0 3.2 0.00 0.33 0.00 92 1022.0
20260901100105 17 44 0.0 3.2 0.00 0.33 0.00 92 1021.9
20260901095553 17 0 1.6 3.2 0.00 0.38 0.00 91 1022.0
20260901095053 17 44 0.0 1.6 0.00 0.38 0.00 92 1022.1
20260901094601 17 44 0.0 0.0 0.00 0.38 0.00 92 1022.0
20260901094054 17 0 0.0 0.0 0.00 0.38 0.00 92 1022.0
20260901093558 17 0 0.0 0.0 0.00 0.38 0.00 92 1022.0
20260901093108 17 0 0.0 0.0 0.00 0.38 0.00 92 1022.1
20260901092554 17 0 0.0 0.0 0.00 0.38 0.00 92 1022.2
20260901092056 17 0 0.0 0.0 0.00 0.38 0.00 92 1022.2
20260901091627 17 0 0.0 0.0 0.00 0.38 0.00 92 1022.1
20260901091053 18 0 0.0 0.0 0.00 0.38 0.00 92 1022.3
20260901090553 18 0 0.0 0.0 0.00 0.38 0.00 92 1022.1
20260901085553 18 0 0.0 0.0 0.00 0.53 0.00 92 1022.1
20260901085053 18 0 0.0 0.0 0.00 0.53 0.00 92 1022.1
20260901084557 18 0 0.0 3.2 0.00 0.53 0.00 91 1022.1
20260901084056 18 0 0.0 4.8 0.00 0.53 0.00 91 1022.1
20260901083555 18 44 0.0 4.8 0.00 0.53 0.00 92 1022.1
20260901083107 18 44 0.0 3.2 0.00 0.53 0.00 92 1022.1
20260901082553 18 44 0.0 3.2 0.00 0.53 0.00 92 1022.1
20260901082054 18 44 0.0 4.8 0.00 0.53 0.00 91 1022.1
20260901081602 18 0 1.6 4.8 0.00 0.53 0.00 91 1022.2
20260901081053 18 44 1.6 4.8 0.00 0.53 0.00 91 1022.2
20260901080553 18 44 0.0 1.6 0.00 0.53 0.00 91 1022.2
20260901080104 18 0 0.0 0.0 0.00 0.53 0.00 91 1022.2
20260901075555 18 0 0.0 0.0 0.00 0.53 0.00 91 1022.3
20260901075054 18 0 0.0 0.0 0.00 0.53 0.00 91 1022.3
20260901074622 18 0 0.0 3.2 0.00 0.53 0.00 91 1022.2
20260901074054 18 0 0.0 3.2 0.00 0.53 0.00 91 1022.3
20260901073556 18 0 0.0 0.0 0.00 0.53 0.00 91 1022.4
20260901073110 18 0 0.0 0.0 0.00 0.53 0.00 91 1022.3
20260901072554 18 0 0.0 0.0 0.00 0.53 0.00 91 1022.4
20260901072056 18 0 0.0 0.0 0.00 0.53 0.00 91 1022.4
20260901071601 18 0 0.0 0.0 0.00 0.53 0.00 91 1022.4
20260901071056 18 0 0.0 1.6 0.00 0.53 0.00 91 1022.4
20260901070555 18 0 0.0 1.6 0.00 0.53 0.00 91 1022.4
20260901070113 18 0 0.0 3.2 0.00 0.53 0.00 90 1022.4
20260901065556 18 0 0.0 3.2 0.00 0.53 0.53 90 1022.3
20260901065056 18 44 0.0 3.2 0.00 0.53 0.53 91 1022.2
20260901064603 18 44 1.6 4.8 0.00 0.53 0.53 90 1022.3
20260901064055 18 44 0.0 6.4 0.00 0.53 0.53 90 1022.4
20260901063555 18 44 3.2 11.3 0.00 0.53 0.53 90 1022.4
20260901063131 18 44 4.8 11.3 0.00 0.53 0.53 90 1022.5
20260901062555 18 60 1.6 9.7 0.00 0.53 0.53 89 1022.6
20260901062055 18 0 0.0 1.6 0.00 0.53 0.53 90 1022.5
20260901061601 18 0 0.0 1.6 0.00 0.53 0.53 89 1022.6
20260901061055 18 0 0.0 1.6 0.00 0.53 0.53 89 1022.5